�p�l������,�ʖ���,����,����,�J��
�͐쐅�ʏ��,�`����@���V��,2024/4/1 0:00,-0.95,0
�͐쐅�ʏ��,�`����@���V��,2024/4/1 0:10,-0.95,0
�͐쐅�ʏ��,�`����@���V��,2024/4/1 0:20,-0.95,0
�͐쐅�ʏ��,�`����@���V��,2024/4/1 0:30,-0.95,0
�͐쐅�ʏ��,�`����@���V��,2024/4/1 0:40,-0.95,0
�͐쐅�ʏ��,�`����@���V��,2024/4/1 0:50,-0.95,0
�͐쐅�ʏ��,�`����@���V��,2024/4/1 1:00,-0.95,0
�͐쐅�ʏ��,�`����@���V��,2024/4/1 1:10,-0.95,0
�͐쐅�ʏ��,�`����@���V��,2024/4/1 1:20,-0.95,0
�͐쐅�ʏ��,�`����@���V��,2024/4/1 1:30,-0.95,0
�͐쐅�ʏ��,�`����@���V��,2024/4/1 1:40,-0.95,0
�͐쐅�ʏ��,�`����@���V��,2024/4/1 1:50,-0.95,0
�͐쐅�ʏ��,�`����@���V��,2024/4/1 2:00,-0.95,0
�͐쐅�ʏ��,�`����@���V��,2024/4/1 2:10,-0.95,0
�͐쐅�ʏ��,�`����@���V��,2024/4/1 2:20,-0.95,0
�͐쐅�ʏ��,�`����@���V��,2024/4/1 2:30,-0.95,0
�͐쐅�ʏ��,�`����@���V��,2024/4/1 2:40,-0.95,0
�͐쐅�ʏ��,�`����@���V��,2024/4/1 2:50,-0.95,0
�͐쐅�ʏ��,�`����@���V��,2024/4/1 3:00,-0.95,0
�͐쐅�ʏ��,�`����@���V��,2024/4/1 3:10,-0.95,0
�͐쐅�ʏ��,�`����@���V��,2024/4/1 3:20,-0.95,0
�͐쐅�ʏ��,�`����@���V��,2024/4/1 3:30,-0.95,0
�͐쐅�ʏ��,�`����@���V��,2024/4/1 3:40,-0.95,0
�͐쐅�ʏ��,�`����@���V��,2024/4/1 3:50,-0.95,0
�͐쐅�ʏ��,�`����@���V��,2024/4/1 4:00,-0.95,0
�͐쐅�ʏ��,�`����@���V��,2024/4/1 4:10,-0.95,0
�͐쐅�ʏ��,�`����@���V��,2024/4/1 4:20,-0.95,0
�͐쐅�ʏ��,�`����@���V��,2024/4/1 4:30,-0.95,0
�͐쐅�ʏ��,�`����@���V��,2024/4/1 4:40,-0.95,0
�͐쐅�ʏ��,�`����@���V��,2024/4/1 4:50,-0.95,0
�͐쐅�ʏ��,�`����@���V��,2024/4/1 5:00,-0.95,0
�͐쐅�ʏ��,�`����@���V��,2024/4/1 5:10,-0.95,0
�͐쐅�ʏ��,�`����@���V��,2024/4/1 5:20,-0.95,0
�͐쐅�ʏ��,�`����@���V��,2024/4/1 5:30,-0.95,0
�͐쐅�ʏ��,�`����@���V��,2024/4/1 5:40,-0.95,0
�͐쐅�ʏ��,�`����@���V��,2024/4/1 5:50,-0.95,0
�͐쐅�ʏ��,�`����@���V��,2024/4/1 6:00,-0.95,0
�͐쐅�ʏ��,�`����@���V��,2024/4/1 6:10,-0.95,0
�͐쐅�ʏ��,�`����@���V��,2024/4/1 6:20,-0.95,0
�͐쐅�ʏ��,�`����@���V��,2024/4/1 6:30,-0.95,0
�͐쐅�ʏ��,�`����@���V��,2024/4/1 6:40,-0.95,0
�͐쐅�ʏ��,�`����@���V��,2024/4/1 6:50,-0.95,0
�͐쐅�ʏ��,�`����@���V��,2024/4/1 7:00,-0.95,0
�͐쐅�ʏ��,�`����@���V��,2024/4/1 7:10,-0.95,0
�͐쐅�ʏ��,�`����@���V��,2024/4/1 7:20,-0.95,0
�͐쐅�ʏ��,�`����@���V��,2024/4/1 7:30,-0.95,0
�͐쐅�ʏ��,�`����@���V��,2024/4/1 7:40,-0.95,0
�͐쐅�ʏ��,�`����@���V��,2024/4/1 7:50,-0.95,0
�͐쐅�ʏ��,�`����@���V��,2024/4/1 8:00,-0.95,0
�͐쐅�ʏ��,�`����@���V��,2024/4/1 8:10,-0.95,0
�͐쐅�ʏ��,�`����@���V��,2024/4/1 8:20,-0.95,0
�͐쐅�ʏ��,�`����@���V��,2024/4/1 8:30,-0.95,0
�͐쐅�ʏ��,�`����@���V��,2024/4/1 8:40,-0.95,0
�͐쐅�ʏ��,�`����@���V��,2024/4/1 8:50,-0.95,0
�͐쐅�ʏ��,�`����@���V��,2024/4/1 9:00,-0.95,0
�͐쐅�ʏ��,�`����@���V��,2024/4/1 9:10,-0.95,0
�͐쐅�ʏ��,�`����@���V��,2024/4/1 9:20,-0.95,0
�͐쐅�ʏ��,�`����@���V��,2024/4/1 9:30,-0.95,0
�͐쐅�ʏ��,�`����@���V��,2024/4/1 9:40,-0.95,0
�͐쐅�ʏ��,�`����@���V��,2024/4/1 9:50,-0.95,0
�͐쐅�ʏ��,�`����@���V��,2024/4/1 10:00,-0.95,0
�͐쐅�ʏ��,�`����@���V��,2024/4/1 10:10,-0.95,0
�͐쐅�ʏ��,�`����@���V��,2024/4/1 10:20,-0.95,0
�͐쐅�ʏ��,�`����@���V��,2024/4/1 10:30,-0.95,0
�͐쐅�ʏ��,�`����@���V��,2024/4/1 10:40,-0.95,0
�͐쐅�ʏ��,�`����@���V��,2024/4/1 10:50,-0.95,0
�͐쐅�ʏ��,�`����@���V��,2024/4/1 11:00,-0.95,0
�͐쐅�ʏ��,�`����@���V��,2024/4/1 11:10,-0.95,0
�͐쐅�ʏ��,�`����@���V��,2024/4/1 11:20,-0.95,0
�͐쐅�ʏ��,�`����@���V��,2024/4/1 11:30,-0.95,0
�͐쐅�ʏ��,�`����@���V��,2024/4/1 11:40,-0.95,0
�͐쐅�ʏ��,�`����@���V��,2024/4/1 11:50,-0.95,0
�͐쐅�ʏ��,�`����@���V��,2024/4/1 12:00,-0.95,0
�͐쐅�ʏ��,�`����@���V��,2024/4/1 12:10,-0.95,0
�͐쐅�ʏ��,�`����@���V��,2024/4/1 12:20,-0.95,0
�͐쐅�ʏ��,�`����@���V��,2024/4/1 12:30,-0.95,0
�͐쐅�ʏ��,�`����@���V��,2024/4/1 12:40,-0.95,0
�͐쐅�ʏ��,�`����@���V��,2024/4/1 12:50,-0.95,0
�͐쐅�ʏ��,�`����@���V��,2024/4/1 13:00,-0.95,0
�͐쐅�ʏ��,�`����@���V��,2024/4/1 13:10,-0.95,0
�͐쐅�ʏ��,�`����@���V��,2024/4/1 13:20,-0.95,0
�͐쐅�ʏ��,�`����@���V��,2024/4/1 13:30,-0.95,0
�͐쐅�ʏ��,�`����@���V��,2024/4/1 13:40,-0.95,0
�͐쐅�ʏ��,�`����@���V��,2024/4/1 13:50,-0.95,0
�͐쐅�ʏ��,�`����@���V��,2024/4/1 14:00,-0.95,0
�͐쐅�ʏ��,�`����@���V��,2024/4/1 14:10,-0.95,0
�͐쐅�ʏ��,�`����@���V��,2024/4/1 14:20,-0.95,0
�͐쐅�ʏ��,�`����@���V��,2024/4/1 14:30,-0.95,0
�͐쐅�ʏ��,�`����@���V��,2024/4/1 14:40,-0.95,0
�͐쐅�ʏ��,�`����@���V��,2024/4/1 14:50,-0.95,0
�͐쐅�ʏ��,�`����@���V��,2024/4/1 15:00,-0.95,0
�͐쐅�ʏ��,�`����@���V��,2024/4/1 15:10,-0.95,0
�͐쐅�ʏ��,�`����@���V��,2024/4/1 15:20,-0.95,0
�͐쐅�ʏ��,�`����@���V��,2024/4/1 15:30,-0.95,0
�͐쐅�ʏ��,�`����@���V��,2024/4/1 15:40,-0.95,0
�͐쐅�ʏ��,�`����@���V��,2024/4/1 15:50,-0.95,0
�͐쐅�ʏ��,�`����@���V��,2024/4/1 16:00,-0.95,0
�͐쐅�ʏ��,�`����@���V��,2024/4/1 16:10,-0.95,0
�͐쐅�ʏ��,�`����@���V��,2024/4/1 16:20,-0.95,0
�͐쐅�ʏ��,�`����@���V��,2024/4/1 16:30,-0.95,0
�͐쐅�ʏ��,�`����@���V��,2024/4/1 16:40,-0.95,0
�͐쐅�ʏ��,�`����@���V��,2024/4/1 16:50,-0.95,0
�͐쐅�ʏ��,�`����@���V��,2024/4/1 17:00,-0.95,0
�͐쐅�ʏ��,�`����@���V��,2024/4/1 17:10,-0.95,0
�͐쐅�ʏ��,�`����@���V��,2024/4/1 17:20,-0.95,0
�͐쐅�ʏ��,�`����@���V��,2024/4/1 17:30,-0.95,0
�͐쐅�ʏ��,�`����@���V��,2024/4/1 17:40,-0.95,0
�͐쐅�ʏ��,�`����@���V��,2024/4/1 17:50,-0.95,0
�͐쐅�ʏ��,�`����@���V��,2024/4/1 18:00,-0.95,0
�͐쐅�ʏ��,�`����@���V��,2024/4/1 18:10,-0.95,0
�͐쐅�ʏ��,�`����@���V��,2024/4/1 18:20,-0.95,0
�͐쐅�ʏ��,�`����@���V��,2024/4/1 18:30,-0.95,0
�͐쐅�ʏ��,�`����@���V��,2024/4/1 18:40,-0.95,0
�͐쐅�ʏ��,�`����@���V��,2024/4/1 18:50,-0.95,0
�͐쐅�ʏ��,�`����@���V��,2024/4/1 19:00,-0.95,0
�͐쐅�ʏ��,�`����@���V��,2024/4/1 19:10,-0.95,0
�͐쐅�ʏ��,�`����@���V��,2024/4/1 19:20,-0.95,0
�͐쐅�ʏ��,�`����@���V��,2024/4/1 19:30,-0.95,0
�͐쐅�ʏ��,�`����@���V��,2024/4/1 19:40,-0.95,0
�͐쐅�ʏ��,�`����@���V��,2024/4/1 19:50,-0.95,0
�͐쐅�ʏ��,�`����@���V��,2024/4/1 20:00,-0.95,0
�͐쐅�ʏ��,�`����@���V��,2024/4/1 20:10,-0.95,0
�͐쐅�ʏ��,�`����@���V��,2024/4/1 20:20,-0.95,0
�͐쐅�ʏ��,�`����@���V��,2024/4/1 20:30,-0.95,0
�͐쐅�ʏ��,�`����@���V��,2024/4/1 20:40,-0.95,0
�͐쐅�ʏ��,�`����@���V��,2024/4/1 20:50,-0.95,0
�͐쐅�ʏ��,�`����@���V��,2024/4/1 21:00,-0.95,0
�͐쐅�ʏ��,�`����@���V��,2024/4/1 21:10,-0.95,0
�͐쐅�ʏ��,�`����@���V��,2024/4/1 21:20,-0.95,0
�͐쐅�ʏ��,�`����@���V��,2024/4/1 21:30,-0.95,0
�͐쐅�ʏ��,�`����@���V��,2024/4/1 21:40,-0.95,0
�͐쐅�ʏ��,�`����@���V��,2024/4/1 21:50,-0.95,0
�͐쐅�ʏ��,�`����@���V��,2024/4/1 22:00,-0.95,0
�͐쐅�ʏ��,�`����@���V��,2024/4/1 22:10,-0.95,0
�͐쐅�ʏ��,�`����@���V��,2024/4/1 22:20,-0.95,0
�͐쐅�ʏ��,�`����@���V��,2024/4/1 22:30,-0.95,0
�͐쐅�ʏ��,�`����@���V��,2024/4/1 22:40,-0.95,0
�͐쐅�ʏ��,�`����@���V��,2024/4/1 22:50,-0.95,0
�͐쐅�ʏ��,�`����@���V��,2024/4/1 23:00,-0.95,0
�͐쐅�ʏ��,�`����@���V��,2024/4/1 23:10,-0.95,0
�͐쐅�ʏ��,�`����@���V��,2024/4/1 23:20,-0.95,0
�͐쐅�ʏ��,�`����@���V��,2024/4/1 23:30,-0.95,0
�͐쐅�ʏ��,�`����@���V��,2024/4/1 23:40,-0.95,0
�͐쐅�ʏ��,�`����@���V��,2024/4/1 23:50,-0.95,0
�͐쐅�ʏ��,�`����@���V��,2024/4/2 0:00,-0.95,0
�͐쐅�ʏ��,�`����@���V��,2024/4/2 0:10,-0.95,0
�͐쐅�ʏ��,�`����@���V��,2024/4/2 0:20,-0.95,0
�͐쐅�ʏ��,�`����@���V��,2024/4/2 0:30,-0.95,0
�͐쐅�ʏ��,�`����@���V��,2024/4/2 0:40,-0.95,0
�͐쐅�ʏ��,�`����@���V��,2024/4/2 0:50,-0.95,0
�͐쐅�ʏ��,�`����@���V��,2024/4/2 1:00,-0.95,0
�͐쐅�ʏ��,�`����@���V��,2024/4/2 1:10,-0.95,0
�͐쐅�ʏ��,�`����@���V��,2024/4/2 1:20,-0.95,0
�͐쐅�ʏ��,�`����@���V��,2024/4/2 1:30,-0.95,0
�͐쐅�ʏ��,�`����@���V��,2024/4/2 1:40,-0.95,0
�͐쐅�ʏ��,�`����@���V��,2024/4/2 1:50,-0.95,0
�͐쐅�ʏ��,�`����@���V��,2024/4/2 2:00,-0.95,0
�͐쐅�ʏ��,�`����@���V��,2024/4/2 2:10,-0.95,0
�͐쐅�ʏ��,�`����@���V��,2024/4/2 2:20,-0.95,0
�͐쐅�ʏ��,�`����@���V��,2024/4/2 2:30,-0.95,0
�͐쐅�ʏ��,�`����@���V��,2024/4/2 2:40,-0.95,0
�͐쐅�ʏ��,�`����@���V��,2024/4/2 2:50,-0.95,0
�͐쐅�ʏ��,�`����@���V��,2024/4/2 3:00,-0.95,0
�͐쐅�ʏ��,�`����@���V��,2024/4/2 3:10,-0.95,0
�͐쐅�ʏ��,�`����@���V��,2024/4/2 3:20,-0.95,0
�͐쐅�ʏ��,�`����@���V��,2024/4/2 3:30,-0.95,0
�͐쐅�ʏ��,�`����@���V��,2024/4/2 3:40,-0.95,0
�͐쐅�ʏ��,�`����@���V��,2024/4/2 3:50,-0.95,0
�͐쐅�ʏ��,�`����@���V��,2024/4/2 4:00,-0.95,0
�͐쐅�ʏ��,�`����@���V��,2024/4/2 4:10,-0.95,0
�͐쐅�ʏ��,�`����@���V��,2024/4/2 4:20,-0.95,0
�͐쐅�ʏ��,�`����@���V��,2024/4/2 4:30,-0.95,0
�͐쐅�ʏ��,�`����@���V��,2024/4/2 4:40,-0.95,0
�͐쐅�ʏ��,�`����@���V��,2024/4/2 4:50,-0.95,0
�͐쐅�ʏ��,�`����@���V��,2024/4/2 5:00,-0.95,0
�͐쐅�ʏ��,�`����@���V��,2024/4/2 5:10,-0.95,0
�͐쐅�ʏ��,�`����@���V��,2024/4/2 5:20,-0.95,0
�͐쐅�ʏ��,�`����@���V��,2024/4/2 5:30,-0.95,0
�͐쐅�ʏ��,�`����@���V��,2024/4/2 5:40,-0.95,0
�͐쐅�ʏ��,�`����@���V��,2024/4/2 5:50,-0.95,0
�͐쐅�ʏ��,�`����@���V��,2024/4/2 6:00,-0.95,0
�͐쐅�ʏ��,�`����@���V��,2024/4/2 6:10,-0.95,0
�͐쐅�ʏ��,�`����@���V��,2024/4/2 6:20,-0.95,0
�͐쐅�ʏ��,�`����@���V��,2024/4/2 6:30,-0.95,0
�͐쐅�ʏ��,�`����@���V��,2024/4/2 6:40,-0.95,0
�͐쐅�ʏ��,�`����@���V��,2024/4/2 6:50,-0.95,0
�͐쐅�ʏ��,�`����@���V��,2024/4/2 7:00,-0.95,0
�͐쐅�ʏ��,�`����@���V��,2024/4/2 7:10,-0.95,0
�͐쐅�ʏ��,�`����@���V��,2024/4/2 7:20,-0.95,0
�͐쐅�ʏ��,�`����@���V��,2024/4/2 7:30,-0.95,0
�͐쐅�ʏ��,�`����@���V��,2024/4/2 7:40,-0.95,0
�͐쐅�ʏ��,�`����@���V��,2024/4/2 7:50,-0.95,0
�͐쐅�ʏ��,�`����@���V��,2024/4/2 8:00,-0.95,0
�͐쐅�ʏ��,�`����@���V��,2024/4/2 8:10,-0.95,0
�͐쐅�ʏ��,�`����@���V��,2024/4/2 8:20,-0.95,0
�͐쐅�ʏ��,�`����@���V��,2024/4/2 8:30,-0.95,0
�͐쐅�ʏ��,�`����@���V��,2024/4/2 8:40,-0.95,0
�͐쐅�ʏ��,�`����@���V��,2024/4/2 8:50,-0.95,0
�͐쐅�ʏ��,�`����@���V��,2024/4/2 9:00,-0.95,0
�͐쐅�ʏ��,�`����@���V��,2024/4/2 9:10,-0.95,0
�͐쐅�ʏ��,�`����@���V��,2024/4/2 9:20,-0.95,0
�͐쐅�ʏ��,�`����@���V��,2024/4/2 9:30,-0.95,0
�͐쐅�ʏ��,�`����@���V��,2024/4/2 9:40,-0.95,0
�͐쐅�ʏ��,�`����@���V��,2024/4/2 9:50,-0.95,0
�͐쐅�ʏ��,�`����@���V��,2024/4/2 10:00,-0.95,0
�͐쐅�ʏ��,�`����@���V��,2024/4/2 10:10,-0.95,0
�͐쐅�ʏ��,�`����@���V��,2024/4/2 10:20,-0.95,0
�͐쐅�ʏ��,�`����@���V��,2024/4/2 10:30,-0.95,0
�͐쐅�ʏ��,�`����@���V��,2024/4/2 10:40,-0.95,0
�͐쐅�ʏ��,�`����@���V��,2024/4/2 10:50,-0.95,0
�͐쐅�ʏ��,�`����@���V��,2024/4/2 11:00,-0.95,0
�͐쐅�ʏ��,�`����@���V��,2024/4/2 11:10,-0.95,0
�͐쐅�ʏ��,�`����@���V��,2024/4/2 11:20,-0.95,0
�͐쐅�ʏ��,�`����@���V��,2024/4/2 11:30,-0.95,0
�͐쐅�ʏ��,�`����@���V��,2024/4/2 11:40,-0.95,0
�͐쐅�ʏ��,�`����@���V��,2024/4/2 11:50,-0.95,0
�͐쐅�ʏ��,�`����@���V��,2024/4/2 12:00,-0.95,0
�͐쐅�ʏ��,�`����@���V��,2024/4/2 12:10,-0.95,0
�͐쐅�ʏ��,�`����@���V��,2024/4/2 12:20,-0.95,0
�͐쐅�ʏ��,�`����@���V��,2024/4/2 12:30,-0.95,0
�͐쐅�ʏ��,�`����@���V��,2024/4/2 12:40,-0.95,0
�͐쐅�ʏ��,�`����@���V��,2024/4/2 12:50,-0.95,0
�͐쐅�ʏ��,�`����@���V��,2024/4/2 13:00,-0.95,0
�͐쐅�ʏ��,�`����@���V��,2024/4/2 13:10,-0.95,0
�͐쐅�ʏ��,�`����@���V��,2024/4/2 13:20,-0.95,0
�͐쐅�ʏ��,�`����@���V��,2024/4/2 13:30,-0.95,0
�͐쐅�ʏ��,�`����@���V��,2024/4/2 13:40,-0.95,0
�͐쐅�ʏ��,�`����@���V��,2024/4/2 13:50,-0.95,0
�͐쐅�ʏ��,�`����@���V��,2024/4/2 14:00,-0.95,0
�͐쐅�ʏ��,�`����@���V��,2024/4/2 14:10,-0.95,0
�͐쐅�ʏ��,�`����@���V��,2024/4/2 14:20,-0.95,0
�͐쐅�ʏ��,�`����@���V��,2024/4/2 14:30,-0.95,0
�͐쐅�ʏ��,�`����@���V��,2024/4/2 14:40,-0.95,0
�͐쐅�ʏ��,�`����@���V��,2024/4/2 14:50,-0.95,0
�͐쐅�ʏ��,�`����@���V��,2024/4/2 15:00,-0.95,0
�͐쐅�ʏ��,�`����@���V��,2024/4/2 15:10,-0.95,0
�͐쐅�ʏ��,�`����@���V��,2024/4/2 15:20,-0.95,0
�͐쐅�ʏ��,�`����@���V��,2024/4/2 15:30,-0.95,0
�͐쐅�ʏ��,�`����@���V��,2024/4/2 15:40,-0.95,0
�͐쐅�ʏ��,�`����@���V��,2024/4/2 15:50,-0.95,0
�͐쐅�ʏ��,�`����@���V��,2024/4/2 16:00,-0.95,0
�͐쐅�ʏ��,�`����@���V��,2024/4/2 16:10,-0.95,0
�͐쐅�ʏ��,�`����@���V��,2024/4/2 16:20,-0.95,0
�͐쐅�ʏ��,�`����@���V��,2024/4/2 16:30,-0.95,0
�͐쐅�ʏ��,�`����@���V��,2024/4/2 16:40,-0.95,0
�͐쐅�ʏ��,�`����@���V��,2024/4/2 16:50,-0.95,0
�͐쐅�ʏ��,�`����@���V��,2024/4/2 17:00,-0.95,0
�͐쐅�ʏ��,�`����@���V��,2024/4/2 17:10,-0.95,0
�͐쐅�ʏ��,�`����@���V��,2024/4/2 17:20,-0.95,0
�͐쐅�ʏ��,�`����@���V��,2024/4/2 17:30,-0.95,0
�͐쐅�ʏ��,�`����@���V��,2024/4/2 17:40,-0.95,0
�͐쐅�ʏ��,�`����@���V��,2024/4/2 17:50,-0.95,0
�͐쐅�ʏ��,�`����@���V��,2024/4/2 18:00,-0.95,0
�͐쐅�ʏ��,�`����@���V��,2024/4/2 18:10,-0.95,0
�͐쐅�ʏ��,�`����@���V��,2024/4/2 18:20,-0.95,0
�͐쐅�ʏ��,�`����@���V��,2024/4/2 18:30,-0.95,0
�͐쐅�ʏ��,�`����@���V��,2024/4/2 18:40,-0.95,0
�͐쐅�ʏ��,�`����@���V��,2024/4/2 18:50,-0.95,0
�͐쐅�ʏ��,�`����@���V��,2024/4/2 19:00,-0.95,0
�͐쐅�ʏ��,�`����@���V��,2024/4/2 19:10,-0.95,0
�͐쐅�ʏ��,�`����@���V��,2024/4/2 19:20,-0.95,0
�͐쐅�ʏ��,�`����@���V��,2024/4/2 19:30,-0.95,0
�͐쐅�ʏ��,�`����@���V��,2024/4/2 19:40,-0.95,0
�͐쐅�ʏ��,�`����@���V��,2024/4/2 19:50,-0.95,0
�͐쐅�ʏ��,�`����@���V��,2024/4/2 20:00,-0.95,0
�͐쐅�ʏ��,�`����@���V��,2024/4/2 20:10,-0.95,0
�͐쐅�ʏ��,�`����@���V��,2024/4/2 20:20,-0.95,0
�͐쐅�ʏ��,�`����@���V��,2024/4/2 20:30,-0.95,0
�͐쐅�ʏ��,�`����@���V��,2024/4/2 20:40,-0.95,0
�͐쐅�ʏ��,�`����@���V��,2024/4/2 20:50,-0.95,0
�͐쐅�ʏ��,�`����@���V��,2024/4/2 21:00,-0.95,0
�͐쐅�ʏ��,�`����@���V��,2024/4/2 21:10,-0.95,0
�͐쐅�ʏ��,�`����@���V��,2024/4/2 21:20,-0.95,0
�͐쐅�ʏ��,�`����@���V��,2024/4/2 21:30,-0.95,0
�͐쐅�ʏ��,�`����@���V��,2024/4/2 21:40,-0.95,0
�͐쐅�ʏ��,�`����@���V��,2024/4/2 21:50,-0.95,0
�͐쐅�ʏ��,�`����@���V��,2024/4/2 22:00,-0.95,0
�͐쐅�ʏ��,�`����@���V��,2024/4/2 22:10,-0.95,0
�͐쐅�ʏ��,�`����@���V��,2024/4/2 22:20,-0.95,0
�͐쐅�ʏ��,�`����@���V��,2024/4/2 22:30,-0.95,0
�͐쐅�ʏ��,�`����@���V��,2024/4/2 22:40,-0.95,0
�͐쐅�ʏ��,�`����@���V��,2024/4/2 22:50,-0.95,0
�͐쐅�ʏ��,�`����@���V��,2024/4/2 23:00,-0.95,0
�͐쐅�ʏ��,�`����@���V��,2024/4/2 23:10,-0.95,0
�͐쐅�ʏ��,�`����@���V��,2024/4/2 23:20,-0.95,0
�͐쐅�ʏ��,�`����@���V��,2024/4/2 23:30,-0.95,0
�͐쐅�ʏ��,�`����@���V��,2024/4/2 23:40,-0.95,0
�͐쐅�ʏ��,�`����@���V��,2024/4/2 23:50,-0.95,0
�͐쐅�ʏ��,�`����@���V��,2024/4/3 0:00,-0.95,0
�͐쐅�ʏ��,�`����@���V��,2024/4/3 0:10,-0.95,0
�͐쐅�ʏ��,�`����@���V��,2024/4/3 0:20,-0.95,0
�͐쐅�ʏ��,�`����@���V��,2024/4/3 0:30,-0.95,0
�͐쐅�ʏ��,�`����@���V��,2024/4/3 0:40,-0.95,0
�͐쐅�ʏ��,�`����@���V��,2024/4/3 0:50,-0.95,0
�͐쐅�ʏ��,�`����@���V��,2024/4/3 1:00,-0.95,0
�͐쐅�ʏ��,�`����@���V��,2024/4/3 1:10,-0.95,0
�͐쐅�ʏ��,�`����@���V��,2024/4/3 1:20,-0.95,0
�͐쐅�ʏ��,�`����@���V��,2024/4/3 1:30,-0.95,0
�͐쐅�ʏ��,�`����@���V��,2024/4/3 1:40,-0.95,0
�͐쐅�ʏ��,�`����@���V��,2024/4/3 1:50,-0.95,0
�͐쐅�ʏ��,�`����@���V��,2024/4/3 2:00,-0.95,0
�͐쐅�ʏ��,�`����@���V��,2024/4/3 2:10,-0.95,0
�͐쐅�ʏ��,�`����@���V��,2024/4/3 2:20,-0.95,0
�͐쐅�ʏ��,�`����@���V��,2024/4/3 2:30,-0.95,0
�͐쐅�ʏ��,�`����@���V��,2024/4/3 2:40,-0.95,0
�͐쐅�ʏ��,�`����@���V��,2024/4/3 2:50,-0.95,0
�͐쐅�ʏ��,�`����@���V��,2024/4/3 3:00,-0.95,0
�͐쐅�ʏ��,�`����@���V��,2024/4/3 3:10,-0.95,0
�͐쐅�ʏ��,�`����@���V��,2024/4/3 3:20,-0.95,0
�͐쐅�ʏ��,�`����@���V��,2024/4/3 3:30,-0.95,0
�͐쐅�ʏ��,�`����@���V��,2024/4/3 3:40,-0.95,0
�͐쐅�ʏ��,�`����@���V��,2024/4/3 3:50,-0.95,0
�͐쐅�ʏ��,�`����@���V��,2024/4/3 4:00,-0.95,0
�͐쐅�ʏ��,�`����@���V��,2024/4/3 4:10,-0.95,0
�͐쐅�ʏ��,�`����@���V��,2024/4/3 4:20,-0.95,0
�͐쐅�ʏ��,�`����@���V��,2024/4/3 4:30,-0.95,0
�͐쐅�ʏ��,�`����@���V��,2024/4/3 4:40,-0.95,0
�͐쐅�ʏ��,�`����@���V��,2024/4/3 4:50,-0.95,0
�͐쐅�ʏ��,�`����@���V��,2024/4/3 5:00,-0.95,0
�͐쐅�ʏ��,�`����@���V��,2024/4/3 5:10,-0.95,0
�͐쐅�ʏ��,�`����@���V��,2024/4/3 5:20,-0.95,0
�͐쐅�ʏ��,�`����@���V��,2024/4/3 5:30,-0.95,0
�͐쐅�ʏ��,�`����@���V��,2024/4/3 5:40,-0.95,0
�͐쐅�ʏ��,�`����@���V��,2024/4/3 5:50,-0.95,0
�͐쐅�ʏ��,�`����@���V��,2024/4/3 6:00,-0.95,0
�͐쐅�ʏ��,�`����@���V��,2024/4/3 6:10,-0.95,0
�͐쐅�ʏ��,�`����@���V��,2024/4/3 6:20,-0.95,0
�͐쐅�ʏ��,�`����@���V��,2024/4/3 6:30,-0.95,0
�͐쐅�ʏ��,�`����@���V��,2024/4/3 6:40,-0.95,0
�͐쐅�ʏ��,�`����@���V��,2024/4/3 6:50,-0.95,0
�͐쐅�ʏ��,�`����@���V��,2024/4/3 7:00,-0.95,0
�͐쐅�ʏ��,�`����@���V��,2024/4/3 7:10,-0.95,0
�͐쐅�ʏ��,�`����@���V��,2024/4/3 7:20,-0.95,0
�͐쐅�ʏ��,�`����@���V��,2024/4/3 7:30,-0.95,0
�͐쐅�ʏ��,�`����@���V��,2024/4/3 7:40,-0.95,0
�͐쐅�ʏ��,�`����@���V��,2024/4/3 7:50,-0.95,0
�͐쐅�ʏ��,�`����@���V��,2024/4/3 8:00,-0.95,0
�͐쐅�ʏ��,�`����@���V��,2024/4/3 8:10,-0.95,0
�͐쐅�ʏ��,�`����@���V��,2024/4/3 8:20,-0.95,0
�͐쐅�ʏ��,�`����@���V��,2024/4/3 8:30,-0.95,0
�͐쐅�ʏ��,�`����@���V��,2024/4/3 8:40,-0.95,0
�͐쐅�ʏ��,�`����@���V��,2024/4/3 8:50,-0.95,0
�͐쐅�ʏ��,�`����@���V��,2024/4/3 9:00,-0.95,0
�͐쐅�ʏ��,�`����@���V��,2024/4/3 9:10,-0.95,0
�͐쐅�ʏ��,�`����@���V��,2024/4/3 9:20,-0.95,0
�͐쐅�ʏ��,�`����@���V��,2024/4/3 9:30,-0.95,0
�͐쐅�ʏ��,�`����@���V��,2024/4/3 9:40,-0.95,0
�͐쐅�ʏ��,�`����@���V��,2024/4/3 9:50,-0.95,0
�͐쐅�ʏ��,�`����@���V��,2024/4/3 10:00,-0.95,0
�͐쐅�ʏ��,�`����@���V��,2024/4/3 10:10,-0.95,0
�͐쐅�ʏ��,�`����@���V��,2024/4/3 10:20,-0.95,0
�͐쐅�ʏ��,�`����@���V��,2024/4/3 10:30,-0.95,0
�͐쐅�ʏ��,�`����@���V��,2024/4/3 10:40,-0.95,0
�͐쐅�ʏ��,�`����@���V��,2024/4/3 10:50,-0.95,0
�͐쐅�ʏ��,�`����@���V��,2024/4/3 11:00,-0.95,0
�͐쐅�ʏ��,�`����@���V��,2024/4/3 11:10,-0.95,0
�͐쐅�ʏ��,�`����@���V��,2024/4/3 11:20,-0.95,0
�͐쐅�ʏ��,�`����@���V��,2024/4/3 11:30,-0.95,0
�͐쐅�ʏ��,�`����@���V��,2024/4/3 11:40,-0.95,0
�͐쐅�ʏ��,�`����@���V��,2024/4/3 11:50,-0.95,0
�͐쐅�ʏ��,�`����@���V��,2024/4/3 12:00,-0.95,0
�͐쐅�ʏ��,�`����@���V��,2024/4/3 12:10,-0.95,0
�͐쐅�ʏ��,�`����@���V��,2024/4/3 12:20,-0.95,0
�͐쐅�ʏ��,�`����@���V��,2024/4/3 12:30,-0.95,0
�͐쐅�ʏ��,�`����@���V��,2024/4/3 12:40,-0.95,0
�͐쐅�ʏ��,�`����@���V��,2024/4/3 12:50,-0.95,0
�͐쐅�ʏ��,�`����@���V��,2024/4/3 13:00,-0.95,0
�͐쐅�ʏ��,�`����@���V��,2024/4/3 13:10,-0.95,0.5
�͐쐅�ʏ��,�`����@���V��,2024/4/3 13:20,-0.95,0
�͐쐅�ʏ��,�`����@���V��,2024/4/3 13:30,-0.95,0
�͐쐅�ʏ��,�`����@���V��,2024/4/3 13:40,-0.94,0
�͐쐅�ʏ��,�`����@���V��,2024/4/3 13:50,-0.94,0.5
�͐쐅�ʏ��,�`����@���V��,2024/4/3 14:00,-0.93,0
�͐쐅�ʏ��,�`����@���V��,2024/4/3 14:10,-0.92,0.5
�͐쐅�ʏ��,�`����@���V��,2024/4/3 14:20,-0.91,0
�͐쐅�ʏ��,�`����@���V��,2024/4/3 14:30,-0.91,0
�͐쐅�ʏ��,�`����@���V��,2024/4/3 14:40,-0.91,0.5
�͐쐅�ʏ��,�`����@���V��,2024/4/3 14:50,-0.92,0
�͐쐅�ʏ��,�`����@���V��,2024/4/3 15:00,-0.92,0
�͐쐅�ʏ��,�`����@���V��,2024/4/3 15:10,-0.92,0
�͐쐅�ʏ��,�`����@���V��,2024/4/3 15:20,-0.92,0.5
�͐쐅�ʏ��,�`����@���V��,2024/4/3 15:30,-0.92,0
�͐쐅�ʏ��,�`����@���V��,2024/4/3 15:40,-0.91,0.5
�͐쐅�ʏ��,�`����@���V��,2024/4/3 15:50,-0.91,0
�͐쐅�ʏ��,�`����@���V��,2024/4/3 16:00,-0.89,0.5
�͐쐅�ʏ��,�`����@���V��,2024/4/3 16:10,-0.89,0.5
�͐쐅�ʏ��,�`����@���V��,2024/4/3 16:20,-0.87,0.5
�͐쐅�ʏ��,�`����@���V��,2024/4/3 16:30,-0.86,0.5
�͐쐅�ʏ��,�`����@���V��,2024/4/3 16:40,-0.84,0.5
�͐쐅�ʏ��,�`����@���V��,2024/4/3 16:50,-0.82,1
�͐쐅�ʏ��,�`����@���V��,2024/4/3 17:00,-0.81,1
�͐쐅�ʏ��,�`����@���V��,2024/4/3 17:10,-0.78,1
�͐쐅�ʏ��,�`����@���V��,2024/4/3 17:20,-0.73,1
�͐쐅�ʏ��,�`����@���V��,2024/4/3 17:30,-0.73,1
�͐쐅�ʏ��,�`����@���V��,2024/4/3 17:40,-0.73,0.5
�͐쐅�ʏ��,�`����@���V��,2024/4/3 17:50,-0.73,1
�͐쐅�ʏ��,�`����@���V��,2024/4/3 18:00,-0.72,1.5
�͐쐅�ʏ��,�`����@���V��,2024/4/3 18:10,-0.72,0.5
�͐쐅�ʏ��,�`����@���V��,2024/4/3 18:20,-0.73,1
�͐쐅�ʏ��,�`����@���V��,2024/4/3 18:30,-0.75,0.5
�͐쐅�ʏ��,�`����@���V��,2024/4/3 18:40,-0.77,0.5
�͐쐅�ʏ��,�`����@���V��,2024/4/3 18:50,-0.78,0.5
�͐쐅�ʏ��,�`����@���V��,2024/4/3 19:00,-0.8,1
�͐쐅�ʏ��,�`����@���V��,2024/4/3 19:10,-0.79,1
�͐쐅�ʏ��,�`����@���V��,2024/4/3 19:20,-0.76,0.5
�͐쐅�ʏ��,�`����@���V��,2024/4/3 19:30,-0.76,1
�͐쐅�ʏ��,�`����@���V��,2024/4/3 19:40,-0.77,1
�͐쐅�ʏ��,�`����@���V��,2024/4/3 19:50,-0.75,0.5
�͐쐅�ʏ��,�`����@���V��,2024/4/3 20:00,-0.73,1
�͐쐅�ʏ��,�`����@���V��,2024/4/3 20:10,-0.74,0.5
�͐쐅�ʏ��,�`����@���V��,2024/4/3 20:20,-0.76,1
�͐쐅�ʏ��,�`����@���V��,2024/4/3 20:30,-0.76,0.5
�͐쐅�ʏ��,�`����@���V��,2024/4/3 20:40,-0.77,0.5
�͐쐅�ʏ��,�`����@���V��,2024/4/3 20:50,-0.78,0.5
�͐쐅�ʏ��,�`����@���V��,2024/4/3 21:00,-0.79,0.5
�͐쐅�ʏ��,�`����@���V��,2024/4/3 21:10,-0.81,0.5
�͐쐅�ʏ��,�`����@���V��,2024/4/3 21:20,-0.81,0.5
�͐쐅�ʏ��,�`����@���V��,2024/4/3 21:30,-0.81,0.5
�͐쐅�ʏ��,�`����@���V��,2024/4/3 21:40,-0.82,0
�͐쐅�ʏ��,�`����@���V��,2024/4/3 21:50,-0.82,1
�͐쐅�ʏ��,�`����@���V��,2024/4/3 22:00,-0.81,0.5
�͐쐅�ʏ��,�`����@���V��,2024/4/3 22:10,-0.81,0
�͐쐅�ʏ��,�`����@���V��,2024/4/3 22:20,-0.81,0.5
�͐쐅�ʏ��,�`����@���V��,2024/4/3 22:30,-0.82,1
�͐쐅�ʏ��,�`����@���V��,2024/4/3 22:40,-0.81,0.5
�͐쐅�ʏ��,�`����@���V��,2024/4/3 22:50,-0.81,0.5
�͐쐅�ʏ��,�`����@���V��,2024/4/3 23:00,-0.82,0
�͐쐅�ʏ��,�`����@���V��,2024/4/3 23:10,-0.82,0.5
�͐쐅�ʏ��,�`����@���V��,2024/4/3 23:20,-0.83,0.5
�͐쐅�ʏ��,�`����@���V��,2024/4/3 23:30,-0.84,0
�͐쐅�ʏ��,�`����@���V��,2024/4/3 23:40,-0.84,0.5
�͐쐅�ʏ��,�`����@���V��,2024/4/3 23:50,-0.85,0
�͐쐅�ʏ��,�`����@���V��,2024/4/4 0:00,-0.86,0.5
�͐쐅�ʏ��,�`����@���V��,2024/4/4 0:10,-0.85,0.5
�͐쐅�ʏ��,�`����@���V��,2024/4/4 0:20,-0.85,0.5
�͐쐅�ʏ��,�`����@���V��,2024/4/4 0:30,-0.84,0
�͐쐅�ʏ��,�`����@���V��,2024/4/4 0:40,-0.84,0.5
�͐쐅�ʏ��,�`����@���V��,2024/4/4 0:50,-0.85,0
�͐쐅�ʏ��,�`����@���V��,2024/4/4 1:00,-0.86,0.5
�͐쐅�ʏ��,�`����@���V��,2024/4/4 1:10,-0.86,0.5
�͐쐅�ʏ��,�`����@���V��,2024/4/4 1:20,-0.85,0.5
�͐쐅�ʏ��,�`����@���V��,2024/4/4 1:30,-0.84,0
�͐쐅�ʏ��,�`����@���V��,2024/4/4 1:40,-0.83,0.5
�͐쐅�ʏ��,�`����@���V��,2024/4/4 1:50,-0.83,0
�͐쐅�ʏ��,�`����@���V��,2024/4/4 2:00,-0.84,0.5
�͐쐅�ʏ��,�`����@���V��,2024/4/4 2:10,-0.85,0
�͐쐅�ʏ��,�`����@���V��,2024/4/4 2:20,-0.85,0
�͐쐅�ʏ��,�`����@���V��,2024/4/4 2:30,-0.85,0.5
�͐쐅�ʏ��,�`����@���V��,2024/4/4 2:40,-0.84,0.5
�͐쐅�ʏ��,�`����@���V��,2024/4/4 2:50,-0.83,0.5
�͐쐅�ʏ��,�`����@���V��,2024/4/4 3:00,-0.83,0.5
�͐쐅�ʏ��,�`����@���V��,2024/4/4 3:10,-0.83,0.5
�͐쐅�ʏ��,�`����@���V��,2024/4/4 3:20,-0.84,0
�͐쐅�ʏ��,�`����@���V��,2024/4/4 3:30,-0.85,0.5
�͐쐅�ʏ��,�`����@���V��,2024/4/4 3:40,-0.85,0.5
�͐쐅�ʏ��,�`����@���V��,2024/4/4 3:50,-0.84,0.5
�͐쐅�ʏ��,�`����@���V��,2024/4/4 4:00,-0.83,0
�͐쐅�ʏ��,�`����@���V��,2024/4/4 4:10,-0.83,0.5
�͐쐅�ʏ��,�`����@���V��,2024/4/4 4:20,-0.84,0
�͐쐅�ʏ��,�`����@���V��,2024/4/4 4:30,-0.85,0.5
�͐쐅�ʏ��,�`����@���V��,2024/4/4 4:40,-0.86,0
�͐쐅�ʏ��,�`����@���V��,2024/4/4 4:50,-0.87,0
�͐쐅�ʏ��,�`����@���V��,2024/4/4 5:00,-0.87,0
�͐쐅�ʏ��,�`����@���V��,2024/4/4 5:10,-0.88,0
�͐쐅�ʏ��,�`����@���V��,2024/4/4 5:20,-0.89,0.5
�͐쐅�ʏ��,�`����@���V��,2024/4/4 5:30,-0.89,0
�͐쐅�ʏ��,�`����@���V��,2024/4/4 5:40,-0.89,0.5
�͐쐅�ʏ��,�`����@���V��,2024/4/4 5:50,-0.88,0
�͐쐅�ʏ��,�`����@���V��,2024/4/4 6:00,-0.88,0
�͐쐅�ʏ��,�`����@���V��,2024/4/4 6:10,-0.89,0
�͐쐅�ʏ��,�`����@���V��,2024/4/4 6:20,-0.89,0.5
�͐쐅�ʏ��,�`����@���V��,2024/4/4 6:30,-0.88,0
�͐쐅�ʏ��,�`����@���V��,2024/4/4 6:40,-0.88,0
�͐쐅�ʏ��,�`����@���V��,2024/4/4 6:50,-0.89,0.5
�͐쐅�ʏ��,�`����@���V��,2024/4/4 7:00,-0.89,0
�͐쐅�ʏ��,�`����@���V��,2024/4/4 7:10,-0.89,0
�͐쐅�ʏ��,�`����@���V��,2024/4/4 7:20,-0.9,0
�͐쐅�ʏ��,�`����@���V��,2024/4/4 7:30,-0.9,0
�͐쐅�ʏ��,�`����@���V��,2024/4/4 7:40,-0.91,0
�͐쐅�ʏ��,�`����@���V��,2024/4/4 7:50,-0.91,0
�͐쐅�ʏ��,�`����@���V��,2024/4/4 8:00,-0.91,0
�͐쐅�ʏ��,�`����@���V��,2024/4/4 8:10,-0.92,0
�͐쐅�ʏ��,�`����@���V��,2024/4/4 8:20,-0.92,0
�͐쐅�ʏ��,�`����@���V��,2024/4/4 8:30,-0.92,0
�͐쐅�ʏ��,�`����@���V��,2024/4/4 8:40,-0.92,0
�͐쐅�ʏ��,�`����@���V��,2024/4/4 8:50,-0.93,0
�͐쐅�ʏ��,�`����@���V��,2024/4/4 9:00,-0.93,0
�͐쐅�ʏ��,�`����@���V��,2024/4/4 9:10,-0.93,0
�͐쐅�ʏ��,�`����@���V��,2024/4/4 9:20,-0.93,0
�͐쐅�ʏ��,�`����@���V��,2024/4/4 9:30,-0.93,0
�͐쐅�ʏ��,�`����@���V��,2024/4/4 9:40,-0.93,0
�͐쐅�ʏ��,�`����@���V��,2024/4/4 9:50,-0.93,0
�͐쐅�ʏ��,�`����@���V��,2024/4/4 10:00,-0.93,0
�͐쐅�ʏ��,�`����@���V��,2024/4/4 10:10,-0.93,0
�͐쐅�ʏ��,�`����@���V��,2024/4/4 10:20,-0.93,0
�͐쐅�ʏ��,�`����@���V��,2024/4/4 10:30,-0.93,0
�͐쐅�ʏ��,�`����@���V��,2024/4/4 10:40,-0.93,0
�͐쐅�ʏ��,�`����@���V��,2024/4/4 10:50,-0.93,0
�͐쐅�ʏ��,�`����@���V��,2024/4/4 11:00,-0.93,0
�͐쐅�ʏ��,�`����@���V��,2024/4/4 11:10,-0.93,0
�͐쐅�ʏ��,�`����@���V��,2024/4/4 11:20,-0.93,0
�͐쐅�ʏ��,�`����@���V��,2024/4/4 11:30,-0.93,0
�͐쐅�ʏ��,�`����@���V��,2024/4/4 11:40,-0.93,0
�͐쐅�ʏ��,�`����@���V��,2024/4/4 11:50,-0.93,0
�͐쐅�ʏ��,�`����@���V��,2024/4/4 12:00,-0.94,0
�͐쐅�ʏ��,�`����@���V��,2024/4/4 12:10,-0.94,0
�͐쐅�ʏ��,�`����@���V��,2024/4/4 12:20,-0.94,0
�͐쐅�ʏ��,�`����@���V��,2024/4/4 12:30,-0.94,0
�͐쐅�ʏ��,�`����@���V��,2024/4/4 12:40,-0.94,0
�͐쐅�ʏ��,�`����@���V��,2024/4/4 12:50,-0.94,0
�͐쐅�ʏ��,�`����@���V��,2024/4/4 13:00,-0.94,0
�͐쐅�ʏ��,�`����@���V��,2024/4/4 13:10,-0.94,0
�͐쐅�ʏ��,�`����@���V��,2024/4/4 13:20,-0.94,0
�͐쐅�ʏ��,�`����@���V��,2024/4/4 13:30,-0.94,0
�͐쐅�ʏ��,�`����@���V��,2024/4/4 13:40,-0.94,0
�͐쐅�ʏ��,�`����@���V��,2024/4/4 13:50,-0.94,0
�͐쐅�ʏ��,�`����@���V��,2024/4/4 14:00,-0.94,0
�͐쐅�ʏ��,�`����@���V��,2024/4/4 14:10,-0.94,0
�͐쐅�ʏ��,�`����@���V��,2024/4/4 14:20,-0.94,0
�͐쐅�ʏ��,�`����@���V��,2024/4/4 14:30,-0.94,0
�͐쐅�ʏ��,�`����@���V��,2024/4/4 14:40,-0.94,0
�͐쐅�ʏ��,�`����@���V��,2024/4/4 14:50,-0.94,0
�͐쐅�ʏ��,�`����@���V��,2024/4/4 15:00,-0.94,0